Location: Pardubice
(50.0330°N, 15.7830°E)
Time: 15:05:04
(UTC+01:00)

ARIANE 6 FM1 Upper Stage - Visible Passes

Search period start: 13 December 2025 00:00
Search period end: 23 December 2025 00:00
Orbit: 522 x 611 km, 62.0° (Epoch: 12 December)

Date Brightness Start Highest point End Pass type
(mag) Time Alt. Az. Time Alt. Az. Time Alt. Az.
13 Dec 5.8 05:58:18 10° SSE 06:00:40 15° ESE 06:03:00 10° E visible
14 Dec 5.3 05:57:49 10° S 06:00:54 21° ESE 06:03:58 10° ENE visible
15 Dec 4.6 05:57:39 10° S 06:01:11 30° SE 06:04:41 10° ENE visible
16 Dec 3.9 05:57:40 10° SSW 06:01:29 42° SE 06:05:15 10° ENE visible
17 Dec 3.1 05:57:50 10° SSW 06:01:49 60° SE 06:05:44 10° NE visible
18 Dec 5.6 04:22:02 10° SE 04:23:44 13° ESE 04:25:32 10° E visible
18 Dec 2.5 05:58:11 10° SW 06:02:10 84° SE 06:06:09 10° NE visible
19 Dec 5.1 04:23:56 18° ESE 04:23:56 18° ESE 04:26:41 10° ENE visible
19 Dec 2.4 06:00:02 22° WSW 06:02:32 71° NW 06:06:31 10° NE visible
20 Dec 5.0 04:25:21 22° E 04:25:21 22° E 04:27:27 10° ENE visible
20 Dec 2.7 06:01:26 32° W 06:02:57 52° NW 06:06:51 10° NE visible
21 Dec 5.0 04:26:27 21° ENE 04:26:27 21° ENE 04:28:01 10° ENE visible
21 Dec 3.0 06:02:30 35° WNW 06:03:23 40° NW 06:07:08 10° NE visible
22 Dec 5.1 04:27:20 18° ENE 04:27:20 18° ENE 04:28:30 10° NE visible
22 Dec 3.3 06:03:23 31° NW 06:03:49 32° NNW 06:07:25 10° NE visible
